map of SKV home
Great Circle Mapper logo
SKV - Airport
Location
City:  St. Catherine, Egypt
Name:St. Catherine International Airport
ICAO / IATA:HESC / SKV

Details
Type:Airport (Aerodrome, Airfield)
Use:International (customs port of entry)
Latitude:2841'07"N (28.685278)
Longitude:3403'45"E (34.062500)
Datum:WGS 1984
Elevation:4368 ft (1331 m)
Variation:4.14E (WMM2015 magnetic declination)
0.08 annual change
Runways:1
Longest:6939 × 118 ft (2115 × 36 m), paved

Time
Time Zone:UTC+2 (DST+3)
Local Time:

Weather
METAR:HESC 301130Z 03008KT CAVOK 25/00 Q1020 NOSIG
TAF:HESC 300500Z 3006/3112 35008G22KT CAVOK
BECMG 3022/3024 VRB03KT
BECMG 3106/3108 36012KT

Related Locations
Nearby:
Farthest:NTAV: 12084 mi / 19447 km
Raivavae, Tubuai Islands, Austral Islands, PF

Find:

   beyond  
but within

Other Information
Maps:
NOTAMs:
Links:
Sources:

  
flag of Egypt   

Sectional Chart

Flight Planning
at skyvector.com

Satellite Image

Google Maps satellite view

 

Copyright © 2004-2015 Karl L. Swartz. All rights reserved.
The Great Circle Mapper name and logo are trademarks of the Great Circle Mapper.
All other trademarks mentioned herein belong to their respective owners.
Please see credits for attibutions and further copyright information.

  Follow gcmap on Facebook Follow gcmap on Twitter Follow gcmap on Google+

hCard Microformat

Geo Microformat